STARLINK-1413 (45689 NORAD) Tracking and Keplerian Element Data

This shows tracking and keplerian element data for the satellite.

Feedback or suggestion? Click here.




ElementValue
Catalog45689
NameSTARLINK-1413
Epoch Orbit554
Epoch Day185.58334491
Epoch Year2020
RAAN24.5048
Inclination52.9998
Eccentricity0.0001441
Argument of Perigee86.5453
Mean Anonmoly114.9265
Mean Motion15.62751405
Decay Rate0.00016616
L11 45689U 20035AJ 20185.58334491 .00016616 00000-0 18694-3 0 9996
L22 45689 52.9998 24.5048 0001441 86.5453 114.9265 15.62751405 5548

Live tracking and technical data element details for STARLINK-1413 (NORAD 45689). STARLINK-1413 can be tracked NOW for your location showing map with azimuth and elevation plus other details from your city location.

Track the satellite on the map from your city or location and see movement details for azimuth, elevation, latitude, longitude, range, height, and movement on the map or in text.







IsCatalogInMostPopularTable: catalog: 45689, numindb: 4
Update: records affected: 1



GetName: 45689 STARLINK-1413

Hit Count: updated at: Sat, 04 Jul 2020 01:29:11 GMT